Wind_Speed
19 20 21 21 21 21 20 20 20 20 21 21 21 21 22 22 23 24 25 25 26 27 27 28 29 30 31 31 32 33 34 34 35 36 37 37 37 38 38 37 37 36 36
23 23 24 24 24 24 23 23 23 22 23 24 24 24 24 25 26 27 28 28 29 30 30 31 32 33 34 35 36 37 37 38 39 40 40 41 41 41 41 41 41 41 40
27 28 28 28 27 27 27 27 26 25 25 25 26 26 27 28 29 30 31 32 32 33 34 35 36 36 37 38 39 40 40 41 42 43 43 44 44 44 45 45 45 45 45
31 31 32 32 32 31 30 30 29 29 27 27 28 28 29 29 30 31 32 33 34 35 36 37 38 39 40 41 42 43 43 44 44 45 46 47 47 48 48 48 48 48 48
34 35 36 34 33 33 33 32 31 30 29 28 29 29 30 30 31 33 34 35 36 37 38 39 40 41 42 44 45 46 46 47 47 48 48 49 50 50 51 51 51 51 52
36 37 37 36 35 35 34 33 32 31 30 30 30 30 31 32 32 34 35 36 37 39 41 42 43 44 45 47 48 49 50 50 51 51 52 53 53 54 54 54 54 54 55
35 34 35 36 35 35 34 32 30 30 30 30 32 32 32 33 34 35 37 38 40 42 43 44 45 47 48 49 50 51 53 53 54 54 55 56 57 57 57 57 57 57 58
32 32 31 31 32 32 31 29 28 27 27 29 31 33 34 35 36 37 39 41 42 44 46 47 48 50 52 53 54 54 55 56 57 58 59 59 60 60 60 60 60 60 60
33 31 30 28 26 26 26 26 26 27 29 31 33 35 37 38 38 40 42 44 45 47 49 51 53 54 55 57 58 58 59 60 60 61 62 62 63 63 63 62 63 63 62
32 29 26 24 24 25 26 27 28 29 32 34 36 38 40 42 44 47 47 48 49 51 53 54 56 57 58 60 61 61 61 61 62 63 63 64 64 65 65 65 65 65 65
33 31 28 26 28 29 30 31 33 35 37 39 40 42 44 46 48 50 51 53 54 55 56 58 60 61 62 62 63 63 62 63 63 64 65 65 65 66 67 67 68 68 68
35 33 32 31 32 34 35 36 37 39 41 43 45 46 48 49 51 53 55 56 58 59 60 61 62 62 63 63 64 64 64 64 64 65 65 66 67 67 68 68 69 69 69
37 37 36 36 36 37 39 41 42 44 45 47 48 49 51 53 54 56 57 59 60 60 61 62 63 63 64 64 65 64 64 65 65 66 66 67 67 67 67 68 69 69 69
41 41 40 41 41 42 44 45 46 48 49 50 51 52 54 55 56 57 58 60 61 61 61 62 63 63 64 64 65 64 65 65 65 66 66 66 66 66 66 66 66 66 66
44 45 45 45 45 46 47 48 49 51 51 52 53 55 56 57 58 58 59 60 61 60 60 61 61 62 63 64 64 65 65 65 64 64 64 64 64 63 63 63 63 63 63
47 48 48 49 50 51 52 52 52 53 54 55 55 56 56 57 57 57 57 58 59 59 59 59 60 61 62 62 63 63 62 62 61 60 59 59 59 59 58 58 59 59 59
50 51 52 52 53 53 54 54 54 54 55 55 55 55 55 55 55 56 56 57 58 58 57 57 58 59 59 60 59 58 57 55 54 53 52 51 51 50 50 50 50 50 50
53 54 54 54 55 55 55 55 55 54 54 54 54 54 54 54 54 54 55 55 56 56 56 55 55 55 55 55 54 52 50 49 47 45 44 43 42 41 41 41 41 42 43
55 55 55 55 55 55 55 54 54 53 53 52 52 52 52 52 53 53 53 53 53 53 53 52 51 50 50 49 47 45 43 41 39 37 36 35 35 34 35 35 36 37 37
56 56 56 55 55 54 53 53 52 52 51 51 51 51 51 51 51 51 51 50 50 50 49 48 47 46 44 42 40 38 35 34 33 32 32 32 32 32 32 33 33 34 35
55 55 55 54 54 53 52 51 50 50 49 49 49 50 50 50 49 49 48 47 47 47 45 44 41 39 37 35 33 31 30 29 30 30 30 31 30 31 31 31 31 31 32
54 54 53 53 52 51 50 49 48 48 48 48 49 49 48 47 46 46 45 44 43 41 39 36 34 32 30 28 27 27 27 27 27 28 29 29 29 29 29 29 29 29 29
52 51 51 50 49 49 49 49 49 49 48 48 48 47 46 45 44 43 41 39 37 34 31 29 27 25 24 25 25 25 26 26 26 26 26 27 27 26 26 26 26 26 27
49 48 48 48 49 49 49 49 48 48 47 47 46 44 43 41 40 37 34 32 30 27 24 22 21 21 22 22 23 23 24 24 24 25 26 25 25 24 24 24 24 24 24
47 47 47 47 48 48 48 48 48 47 45 43 41 39 37 35 32 30 28 26 24 21 18 17 17 19 20 20 20 21 22 23 23 24 25 24 23 23 23 23 22 21 21
45 46 46 47 47 47 46 45 44 42 39 37 35 32 29 27 25 24 22 19 17 15 14 14 15 16 17 18 19 19 21 22 22 22 23 22 22 21 21 21 20 19 18
Wind_Direction
288 285 284 282 281 279 278 277 277 278 278 277 278 276 275 276 277 278 278 278 278 278 279 279 280 280 281 281 280 280 280 279 278 277 277 276 275 273 273 272 271 271 270
289 283 281 280 277 276 274 274 276 277 278 277 277 276 276 275 277 278 279 279 279 279 280 280 281 281 281 281 280 280 279 278 278 277 277 276 275 273 272 271 270 269 268
286 283 279 275 273 272 271 271 272 273 275 276 275 276 275 276 278 279 280 280 280 280 280 281 281 281 281 281 281 280 279 278 277 277 276 275 274 273 271 270 269 269 268
284 281 277 274 270 268 269 269 270 272 272 274 276 276 276 278 279 279 280 280 281 281 281 281 281 281 281 281 280 279 278 278 277 276 276 275 274 273 272 271 269 268 267
284 280 279 274 271 269 268 268 269 271 270 272 274 275 277 278 279 278 279 280 280 280 281 281 280 280 280 280 279 279 278 277 277 276 276 275 274 273 272 271 270 268 267
286 281 279 273 271 271 271 269 270 272 272 274 274 276 278 279 280 280 280 280 280 280 281 280 280 280 279 279 278 278 278 277 277 276 275 274 273 273 272 271 270 269 267
290 285 282 274 272 274 272 270 272 274 276 278 278 279 282 282 281 281 280 281 281 281 280 281 282 281 280 279 279 278 278 277 277 276 275 274 274 273 272 271 270 268 267
294 289 284 283 279 278 274 272 276 279 282 285 285 287 288 287 286 286 286 286 285 283 282 282 282 281 281 280 279 279 279 278 277 276 275 275 274 273 272 271 270 268 267
303 294 288 288 288 284 283 283 284 286 290 292 292 292 292 291 288 289 288 287 286 285 283 283 282 281 281 281 281 280 280 279 278 277 276 275 275 274 273 272 270 268 266
309 305 301 297 296 297 298 296 297 297 296 296 296 295 293 292 291 291 289 288 286 285 284 284 284 283 282 282 282 281 280 279 278 277 276 275 274 273 272 271 270 268 266
310 308 306 305 302 303 303 302 301 300 298 296 295 295 293 291 291 291 291 291 289 287 286 286 286 285 284 284 283 282 281 280 279 278 277 276 275 273 272 271 270 268 267
305 307 309 308 304 302 299 298 298 297 297 296 295 294 292 291 291 290 290 290 289 288 288 288 287 286 285 285 284 283 282 281 280 278 277 276 275 274 273 272 270 269 267
303 305 306 306 303 300 300 298 296 296 295 294 294 293 291 290 290 289 289 288 288 288 288 288 287 286 285 285 285 284 283 281 280 280 279 278 276 275 274 272 271 269 267
300 303 303 302 300 298 297 296 295 294 294 293 292 291 290 289 289 289 288 288 288 288 288 288 287 286 286 286 286 285 284 283 282 281 280 278 277 276 274 273 271 269 268
299 300 300 299 298 297 296 295 295 294 293 292 291 290 290 290 289 289 288 288 288 288 289 289 288 288 288 287 287 287 286 285 284 282 281 279 278 276 275 273 271 269 268
298 298 297 297 297 297 296 295 294 293 292 290 290 289 289 289 289 289 290 290 290 290 290 290 289 289 289 289 289 288 288 287 286 284 283 281 279 278 276 274 271 269 267
297 297 297 297 296 296 295 294 293 293 292 291 290 290 289 290 290 291 291 291 291 291 291 291 291 291 291 291 291 291 290 289 288 286 285 283 281 279 276 274 272 270 268
296 296 296 296 296 295 295 294 293 293 292 291 290 290 290 291 291 291 292 292 292 292 293 293 293 293 293 293 293 293 292 291 290 288 287 286 284 281 278 275 273 271 269
295 295 295 295 295 295 294 293 293 292 291 290 290 290 291 291 291 292 292 293 293 293 294 295 295 296 296 296 296 295 295 293 292 291 289 288 285 283 280 278 275 272 270
294 294 295 295 294 294 293 293 292 292 291 291 290 290 291 292 293 293 293 294 295 295 297 298 299 298 298 298 298 298 297 296 295 294 292 290 287 286 283 280 277 274 271
293 294 294 294 293 293 293 292 292 292 292 291 291 292 293 294 294 294 295 295 296 297 298 299 300 300 300 301 301 301 301 300 300 300 298 295 293 290 287 284 280 276 273
293 293 293 292 293 293 293 293 293 293 293 293 293 294 294 295 295 295 295 296 297 298 299 300 300 301 302 303 304 305 305 306 305 304 303 301 299 294 290 287 284 279 275
292 292 292 292 292 293 293 293 293 294 294 294 295 295 295 295 295 296 296 297 298 298 299 301 302 303 303 304 306 308 310 311 310 310 309 306 304 300 296 292 287 283 278
291 291 292 292 293 293 294 294 294 294 294 295 295 295 295 295 295 296 297 298 298 299 301 302 303 304 305 307 310 313 314 314 314 315 315 313 309 306 302 298 293 288 283
292 292 293 293 294 294 295 295 295 295 295 294 294 294 295 295 295 295 296 296 297 299 301 303 305 308 311 314 316 318 320 320 319 319 319 317 314 312 309 304 299 293 286
293 294 294 295 295 295 295 295 295 295 295 294 294 294 293 293 293 294 294 295 297 300 304 307 311 315 319 321 323 325 327 327 325 323 323 321 319 317 314 310 305 299 290
Height
5876 5874 5873 5872 5871 5870 5869 5869 5868 5867 5867 5866 5865 5864 5864 5863 5862 5861 5861 5860 5860 5859 5858 5857 5857 5856 5855 5855 5854 5853 5853 5852 5851 5851 5850 5850 5850 5850 5850 5850 5850 5850 5851
5872 5870 5868 5867 5866 5865 5864 5864 5863 5863 5862 5861 5860 5859 5858 5857 5856 5855 5854 5854 5853 5852 5852 5851 5850 5849 5848 5847 5846 5845 5844 5843 5843 5842 5841 5841 5840 5840 5840 5840 5841 5841 5841
5866 5864 5863 5861 5860 5859 5858 5857 5857 5856 5855 5854 5853 5852 5852 5851 5850 5849 5848 5847 5845 5845 5844 5843 5842 5841 5839 5838 5837 5836 5835 5834 5833 5832 5831 5830 5830 5829 5829 5829 5829 5830 5830
5860 5858 5856 5854 5853 5852 5851 5850 5850 5849 5849 5848 5847 5846 5845 5844 5843 5842 5841 5839 5838 5837 5836 5835 5833 5832 5830 5829 5827 5826 5825 5824 5822 5821 5820 5819 5818 5817 5817 5817 5817 5818 5818
5852 5850 5848 5846 5845 5845 5844 5843 5842 5842 5841 5840 5839 5838 5837 5836 5836 5834 5833 5831 5830 5828 5826 5825 5823 5822 5820 5818 5817 5815 5814 5812 5811 5810 5808 5807 5806 5805 5804 5804 5804 5804 5805
5845 5843 5840 5838 5837 5837 5836 5835 5835 5834 5834 5833 5832 5831 5830 5829 5827 5826 5824 5823 5821 5819 5817 5815 5813 5811 5809 5807 5805 5803 5802 5800 5798 5797 5795 5793 5792 5791 5790 5790 5790 5790 5790
5837 5834 5832 5830 5830 5829 5829 5828 5828 5826 5826 5825 5824 5823 5822 5821 5819 5817 5815 5814 5812 5809 5807 5804 5801 5799 5797 5795 5793 5791 5788 5786 5784 5783 5781 5779 5777 5776 5776 5775 5774 5774 5775
5830 5827 5826 5825 5824 5822 5821 5821 5820 5819 5818 5818 5816 5815 5814 5813 5811 5808 5806 5804 5801 5798 5795 5793 5790 5787 5784 5781 5779 5777 5774 5771 5769 5767 5765 5763 5761 5760 5759 5758 5758 5757 5758
5824 5821 5819 5818 5817 5816 5815 5814 5813 5812 5811 5810 5809 5807 5805 5803 5801 5799 5796 5793 5790 5786 5783 5780 5777 5774 5770 5766 5763 5761 5759 5755 5752 5750 5748 5746 5744 5742 5741 5740 5740 5740 5740
5819 5816 5815 5814 5812 5810 5809 5808 5807 5805 5804 5802 5800 5798 5795 5792 5789 5785 5783 5780 5777 5773 5770 5766 5762 5758 5754 5751 5747 5744 5742 5738 5735 5732 5729 5727 5725 5723 5722 5721 5721 5721 5721
5815 5812 5811 5809 5807 5805 5803 5801 5800 5798 5795 5793 5790 5787 5784 5780 5776 5773 5769 5766 5762 5758 5754 5750 5746 5741 5737 5733 5730 5726 5724 5720 5717 5714 5711 5708 5706 5704 5702 5701 5701 5700 5701
5810 5807 5805 5802 5800 5798 5796 5793 5791 5788 5785 5782 5779 5775 5772 5768 5764 5760 5755 5751 5747 5742 5738 5733 5728 5724 5719 5715 5711 5708 5705 5701 5698 5694 5691 5689 5686 5684 5682 5680 5680 5679 5679
5802 5800 5797 5795 5792 5790 5787 5784 5781 5778 5774 5770 5766 5762 5758 5754 5750 5746 5741 5736 5732 5727 5722 5716 5711 5706 5701 5697 5693 5690 5686 5682 5678 5675 5671 5668 5665 5663 5661 5659 5658 5657 5657
5793 5790 5788 5785 5783 5779 5776 5773 5769 5766 5761 5757 5753 5749 5744 5740 5736 5731 5726 5721 5716 5712 5706 5701 5694 5688 5683 5679 5674 5671 5667 5663 5659 5655 5651 5647 5644 5642 5639 5637 5636 5635 5635
5783 5780 5777 5774 5771 5768 5764 5760 5756 5752 5748 5744 5739 5734 5729 5725 5720 5715 5710 5705 5701 5696 5691 5684 5678 5672 5666 5661 5656 5652 5647 5643 5639 5634 5630 5627 5623 5620 5618 5616 5615 5614 5613
5772 5768 5765 5761 5758 5754 5750 5746 5741 5737 5733 5728 5724 5719 5714 5709 5705 5700 5695 5689 5684 5679 5675 5669 5662 5656 5650 5644 5639 5634 5628 5624 5619 5614 5610 5606 5603 5600 5597 5595 5594 5593 5592
5759 5756 5752 5748 5743 5739 5735 5731 5727 5722 5718 5713 5708 5703 5699 5694 5689 5684 5680 5674 5669 5663 5659 5654 5646 5640 5634 5628 5622 5616 5611 5606 5601 5596 5592 5588 5585 5582 5579 5577 5575 5574 5574
5746 5742 5737 5733 5729 5724 5720 5716 5711 5707 5702 5697 5693 5688 5684 5679 5675 5670 5665 5659 5654 5648 5643 5638 5632 5625 5619 5613 5607 5601 5595 5590 5585 5581 5577 5573 5570 5567 5564 5562 5560 5559 5558
5732 5727 5723 5718 5714 5709 5705 5700 5696 5691 5687 5683 5678 5674 5669 5665 5661 5656 5650 5645 5640 5634 5629 5624 5618 5611 5605 5598 5593 5588 5582 5577 5573 5569 5565 5562 5558 5555 5552 5550 5548 5546 5545
5717 5713 5708 5703 5699 5694 5690 5685 5681 5677 5673 5668 5664 5660 5656 5651 5647 5642 5637 5631 5626 5621 5615 5610 5604 5598 5592 5587 5581 5577 5572 5567 5563 5559 5555 5551 5548 5545 5541 5539 5536 5535 5533
5703 5698 5693 5688 5684 5680 5675 5671 5667 5663 5659 5654 5650 5646 5642 5638 5633 5628 5623 5619 5614 5609 5603 5598 5593 5587 5582 5577 5572 5568 5564 5559 5554 5550 5546 5541 5538 5534 5531 5528 5526 5524 5522
5688 5684 5679 5674 5670 5666 5661 5657 5653 5649 5645 5641 5636 5632 5628 5624 5620 5615 5611 5607 5602 5597 5593 5588 5583 5579 5574 5570 5565 5561 5556 5552 5548 5543 5538 5533 5529 5525 5521 5518 5516 5513 5511
5674 5670 5665 5660 5656 5652 5648 5644 5640 5636 5632 5627 5623 5618 5614 5611 5607 5603 5599 5596 5592 5587 5584 5580 5576 5572 5568 5564 5560 5555 5550 5545 5541 5536 5531 5526 5521 5516 5513 5509 5506 5504 5502
5661 5656 5652 5647 5643 5639 5635 5631 5626 5622 5618 5614 5610 5606 5602 5598 5595 5592 5589 5586 5582 5579 5576 5573 5570 5567 5563 5559 5554 5550 5545 5540 5535 5530 5525 5520 5515 5510 5506 5502 5498 5496 5493
5648 5643 5639 5634 5630 5626 5621 5617 5613 5609 5605 5602 5598 5594 5591 5588 5586 5583 5580 5578 5575 5573 5571 5568 5566 5562 5558 5554 5550 5545 5540 5535 5531 5525 5520 5514 5509 5504 5500 5495 5492 5488 5486
5635 5630 5626 5621 5616 5612 5608 5604 5600 5596 5593 5590 5587 5584 5582 5580 5578 5576 5574 5572 5571 5569 5567 5565 5562 5559 5555 5551 5546 5542 5537 5532 5526 5521 5516 5510 5505 5500 5495 5490 5486 5482 5480